Time,TemperatureF,DewpointF,PressureIn,WindDirection,WindDirectionDegrees,WindSpeedMPH,WindSpeedGustMPH,Humidity,HourlyPrecipIn,Conditions,Clouds,dailyrainin,SoftwareType,DateUTC
2013-07-26 00:01:00,68.7,68.1,29.72,SSW,202,0.0,-999.0,98,-99.99,,,0.00,Acu-Link.com,2013-07-26 05:01:00,
2013-07-26 00:32:00,68.4,67.8,29.71,SW,225,0.0,-999.0,98,-99.99,,,0.00,Acu-Link.com,2013-07-26 05:32:00,
2013-07-26 00:47:00,68.2,67.6,29.71,SW,225,0.0,-999.0,98,-99.99,,,0.00,Acu-Link.com,2013-07-26 05:47:00,
2013-07-26 01:02:00,68.0,67.4,29.72,SSW,202,0.0,-999.0,98,-99.99,,,0.00,Acu-Link.com,2013-07-26 06:02:00,
2013-07-26 01:17:00,68.0,67.4,29.72,SW,225,0.0,-999.0,98,-99.99,,,0.00,Acu-Link.com,2013-07-26 06:17:00,
2013-07-26 01:32:00,67.8,67.2,29.71,SW,225,0.0,-999.0,98,-99.99,,,0.00,Acu-Link.com,2013-07-26 06:32:00,
2013-07-26 01:47:00,67.8,67.2,29.71,SW,225,0.0,-999.0,98,-99.99,,,0.00,Acu-Link.com,2013-07-26 06:47:00,
2013-07-26 02:02:00,67.5,66.9,29.71,SW,225,0.0,-999.0,98,-99.99,,,0.00,Acu-Link.com,2013-07-26 07:02:00,
2013-07-26 02:17:00,67.3,66.7,29.71,SSW,202,0.0,-999.0,98,-99.99,,,0.00,Acu-Link.com,2013-07-26 07:17:00,
2013-07-26 02:32:00,66.9,66.3,29.71,SW,225,0.0,-999.0,98,-99.99,,,0.00,Acu-Link.com,2013-07-26 07:32:00,
2013-07-26 02:47:00,66.9,66.3,29.72,SSW,202,0.0,-999.0,98,-99.99,,,0.00,Acu-Link.com,2013-07-26 07:47:00,
2013-07-26 03:03:00,66.6,66.0,29.71,SW,225,0.0,-999.0,98,-99.99,,,0.00,Acu-Link.com,2013-07-26 08:03:00,
2013-07-26 03:18:00,66.0,65.4,29.72,SSW,202,0.0,-999.0,98,-99.99,,,0.00,Acu-Link.com,2013-07-26 08:18:00,
2013-07-26 03:33:00,65.7,65.1,29.72,SSW,202,0.0,-999.0,98,-99.99,,,0.00,Acu-Link.com,2013-07-26 08:33:00,
2013-07-26 03:48:00,65.5,64.9,29.73,SW,225,0.0,-999.0,98,-99.99,,,0.00,Acu-Link.com,2013-07-26 08:48:00,
2013-07-26 04:03:00,65.3,64.7,29.73,SSW,202,0.0,-999.0,98,-99.99,,,0.00,Acu-Link.com,2013-07-26 09:03:00,
2013-07-26 04:18:00,64.8,64.2,29.73,SSW,202,0.0,-999.0,98,-99.99,,,0.00,Acu-Link.com,2013-07-26 09:18:00,
2013-07-26 04:34:00,64.6,64.0,29.73,SSW,202,0.0,-999.0,98,-99.99,,,0.00,Acu-Link.com,2013-07-26 09:34:00,
2013-07-26 04:49:00,64.4,63.8,29.73,SW,225,0.0,-999.0,98,-99.99,,,0.00,Acu-Link.com,2013-07-26 09:49:00,
2013-07-26 05:04:00,64.2,63.6,29.74,SW,225,0.0,-999.0,98,-99.99,,,0.00,Acu-Link.com,2013-07-26 10:04:00,
2013-07-26 05:19:00,63.9,63.3,29.74,SE,135,0.0,-999.0,98,-99.99,,,0.00,Acu-Link.com,2013-07-26 10:19:00,
2013-07-26 05:34:00,63.9,63.3,29.74,SE,135,0.0,-999.0,98,-99.99,,,0.00,Acu-Link.com,2013-07-26 10:34:00,
2013-07-26 05:49:00,63.3,62.7,29.74,ENE,67,0.0,-999.0,98,-99.99,,,0.00,Acu-Link.com,2013-07-26 10:49:00,
2013-07-26 06:04:00,63.5,62.9,29.73,NE,45,0.0,-999.0,98,-99.99,,,0.00,Acu-Link.com,2013-07-26 11:04:00,
2013-07-26 06:19:00,63.9,63.3,29.73,NE,45,0.0,-999.0,98,-99.99,,,0.00,Acu-Link.com,2013-07-26 11:19:00,
2013-07-26 06:34:00,64.6,64.0,29.74,NE,45,0.0,-999.0,98,-99.99,,,0.00,Acu-Link.com,2013-07-26 11:34:00,
2013-07-26 06:49:00,66.6,66.0,29.74,NE,45,0.0,-999.0,98,-99.99,,,0.00,Acu-Link.com,2013-07-26 11:49:00,
2013-07-26 07:05:00,69.1,68.5,29.74,WNW,292,0.0,-999.0,98,-99.99,,,0.00,Acu-Link.com,2013-07-26 12:05:00,
2013-07-26 07:20:00,71.6,71.0,29.74,NE,45,0.0,-999.0,98,-99.99,,,0.00,Acu-Link.com,2013-07-26 12:20:00,
2013-07-26 07:35:00,74.7,74.1,29.74,East,90,0.0,-999.0,98,-99.99,,,0.00,Acu-Link.com,2013-07-26 12:35:00,
2013-07-26 07:50:00,74.7,74.1,29.75,West,270,0.0,-999.0,98,-99.99,,,0.00,Acu-Link.com,2013-07-26 12:50:00,
2013-07-26 08:05:00,77.5,76.9,29.75,SSW,202,0.0,-999.0,98,-99.99,,,0.00,Acu-Link.com,2013-07-26 13:05:00,
2013-07-26 08:20:00,80.1,79.5,29.76,East,90,2.2,-999.0,98,-99.99,,,0.00,Acu-Link.com,2013-07-26 13:20:00,
2013-07-26 08:36:00,77.5,76.9,29.76,ESE,112,0.0,-999.0,98,-99.99,,,0.00,Acu-Link.com,2013-07-26 13:36:00,
2013-07-26 08:51:00,78.3,77.7,29.76,ESE,112,2.7,-999.0,98,-99.99,,,0.00,Acu-Link.com,2013-07-26 13:51:00,
2013-07-26 09:06:00,77.5,76.9,29.77,SSE,157,1.1,-999.0,98,-99.99,,,0.00,Acu-Link.com,2013-07-26 14:06:00,
2013-07-26 09:36:00,80.1,79.5,29.76,NW,315,2.2,-999.0,98,-99.99,,,0.00,Acu-Link.com,2013-07-26 14:36:00,
2013-07-26 10:06:00,82.0,81.4,29.75,NW,315,2.2,-999.0,98,-99.99,,,0.00,Acu-Link.com,2013-07-26 15:06:00,
2013-07-26 10:21:00,83.1,82.5,29.75,SSE,157,1.7,-999.0,98,-99.99,,,0.00,Acu-Link.com,2013-07-26 15:21:00,
2013-07-26 10:36:00,85.1,84.5,29.75,NE,45,1.7,-999.0,98,-99.99,,,0.00,Acu-Link.com,2013-07-26 15:36:00,
2013-07-26 10:52:00,84.9,84.3,29.75,ENE,67,2.7,-999.0,98,-99.99,,,0.00,Acu-Link.com,2013-07-26 15:52:00,
2013-07-26 11:07:00,85.8,85.2,29.74,ENE,67,1.7,-999.0,98,-99.99,,,0.00,Acu-Link.com,2013-07-26 16:07:00,
2013-07-26 11:22:00,85.5,84.9,29.74,West,270,2.2,-999.0,98,-99.99,,,0.00,Acu-Link.com,2013-07-26 16:22:00,
2013-07-26 11:37:00,86.4,85.8,29.74,NNE,22,1.1,-999.0,98,-99.99,,,0.00,Acu-Link.com,2013-07-26 16:37:00,
2013-07-26 11:52:00,87.4,86.8,29.73,NNE,22,1.1,-999.0,98,-99.99,,,0.00,Acu-Link.com,2013-07-26 16:52:00,
2013-07-26 12:07:00,86.0,85.4,29.74,East,90,2.2,-999.0,98,-99.99,,,0.00,Acu-Link.com,2013-07-26 17:07:00,
2013-07-26 12:22:00,87.3,86.7,29.74,SW,225,1.1,-999.0,98,-99.99,,,0.00,Acu-Link.com,2013-07-26 17:22:00,
2013-07-26 12:37:00,88.7,88.1,29.73,West,270,0.0,-999.0,98,-99.99,,,0.00,Acu-Link.com,2013-07-26 17:37:00,
2013-07-26 12:52:00,89.2,88.6,29.72,WSW,247,2.2,-999.0,98,-99.99,,,0.00,Acu-Link.com,2013-07-26 17:52:00,
2013-07-26 13:08:00,85.6,85.0,29.71,NNW,337,1.7,-999.0,98,-99.99,,,0.00,Acu-Link.com,2013-07-26 18:08:00,
2013-07-26 13:23:00,88.7,88.1,29.71,ESE,112,2.2,-999.0,98,-99.99,,,0.00,Acu-Link.com,2013-07-26 18:23:00,
2013-07-26 13:38:00,88.2,87.6,29.71,ENE,67,0.0,-999.0,98,-99.99,,,0.00,Acu-Link.com,2013-07-26 18:38:00,
2013-07-26 13:53:00,89.1,88.5,29.70,NE,45,2.2,-999.0,98,-99.99,,,0.00,Acu-Link.com,2013-07-26 18:53:00,
2013-07-26 14:08:00,88.9,88.3,29.69,WSW,247,1.1,-999.0,98,-99.99,,,0.00,Acu-Link.com,2013-07-26 19:08:00,
2013-07-26 14:23:00,88.7,88.1,29.69,SSE,157,4.2,-999.0,98,-99.99,,,0.00,Acu-Link.com,2013-07-26 19:23:00,
2013-07-26 14:38:00,90.3,89.7,29.68,SE,135,1.7,-999.0,98,-99.99,,,0.00,Acu-Link.com,2013-07-26 19:38:00,
2013-07-26 14:53:00,88.5,87.9,29.68,West,270,5.8,-999.0,98,-99.99,,,0.00,Acu-Link.com,2013-07-26 19:53:00,
2013-07-26 15:08:00,89.4,88.8,29.68,NNW,337,2.7,-999.0,98,-99.99,,,0.00,Acu-Link.com,2013-07-26 20:08:00,
2013-07-26 15:23:00,87.8,87.2,29.69,East,90,1.7,-999.0,98,-99.99,,,0.00,Acu-Link.com,2013-07-26 20:23:00,
2013-07-26 15:39:00,88.7,88.1,29.68,WSW,247,0.0,-999.0,98,-99.99,,,0.00,Acu-Link.com,2013-07-26 20:39:00,
2013-07-26 15:54:00,89.4,88.8,29.68,South,180,1.7,-999.0,98,-99.99,,,0.00,Acu-Link.com,2013-07-26 20:54:00,
2013-07-26 16:09:00,89.4,88.8,29.67,NNE,22,4.2,-999.0,98,-99.99,,,0.00,Acu-Link.com,2013-07-26 21:09:00,
2013-07-26 16:24:00,89.4,88.8,29.68,SSW,202,1.7,-999.0,98,-99.99,,,0.00,Acu-Link.com,2013-07-26 21:24:00,
2013-07-26 16:39:00,89.2,88.6,29.67,South,180,0.0,-999.0,98,-99.99,,,0.00,Acu-Link.com,2013-07-26 21:39:00,
2013-07-26 16:54:00,89.1,88.5,29.67,West,270,0.0,-999.0,98,-99.99,,,0.00,Acu-Link.com,2013-07-26 21:54:00,
2013-07-26 17:09:00,92.5,91.8,29.67,SSE,157,1.7,-999.0,98,-99.99,,,0.00,Acu-Link.com,2013-07-26 22:09:00,
2013-07-26 17:24:00,90.9,90.3,29.68,SSE,157,0.0,-999.0,98,-99.99,,,0.00,Acu-Link.com,2013-07-26 22:24:00,
2013-07-26 17:39:00,89.4,88.8,29.68,West,270,0.0,-999.0,98,-99.99,,,0.00,Acu-Link.com,2013-07-26 22:39:00,
2013-07-26 17:55:00,88.3,87.7,29.68,West,270,0.0,-999.0,98,-99.99,,,0.00,Acu-Link.com,2013-07-26 22:55:00,
2013-07-26 18:10:00,85.3,84.7,29.68,WSW,247,0.0,-999.0,98,-99.99,,,0.00,Acu-Link.com,2013-07-26 23:10:00,
2013-07-26 18:25:00,84.6,84.0,29.69,West,270,0.0,-999.0,98,-99.99,,,0.00,Acu-Link.com,2013-07-26 23:25:00,
2013-07-26 18:40:00,82.6,82.0,29.68,West,270,0.0,-999.0,98,-99.99,,,0.00,Acu-Link.com,2013-07-26 23:40:00,
2013-07-26 18:55:00,82.0,81.4,29.69,SSE,157,0.0,-999.0,98,-99.99,,,0.00,Acu-Link.com,2013-07-26 23:55:00,
2013-07-26 19:10:00,80.2,79.6,29.69,South,180,0.0,-999.0,98,-99.99,,,0.00,Acu-Link.com,2013-07-27 00:10:00,
2013-07-26 19:25:00,79.3,78.7,29.70,SSW,202,0.0,-999.0,98,-99.99,,,0.00,Acu-Link.com,2013-07-27 00:25:00,
2013-07-26 19:40:00,77.9,77.3,29.70,South,180,0.0,-999.0,98,-99.99,,,0.00,Acu-Link.com,2013-07-27 00:40:00,
2013-07-26 19:55:00,77.5,76.9,29.69,SSW,202,0.0,-999.0,98,-99.99,,,0.00,Acu-Link.com,2013-07-27 00:55:00,
2013-07-26 20:11:00,76.3,75.7,29.69,West,270,0.0,-999.0,98,-99.99,,,0.00,Acu-Link.com,2013-07-27 01:11:00,
2013-07-26 20:26:00,75.2,74.6,29.69,West,270,0.0,-999.0,98,-99.99,,,0.00,Acu-Link.com,2013-07-27 01:26:00,
2013-07-26 20:41:00,74.7,74.1,29.69,SSW,202,0.0,-999.0,98,-99.99,,,0.00,Acu-Link.com,2013-07-27 01:41:00,
2013-07-26 21:11:00,73.8,73.2,29.69,South,180,0.0,-999.0,98,-99.99,,,0.00,Acu-Link.com,2013-07-27 02:11:00,
2013-07-26 21:26:00,73.2,72.6,29.69,South,180,0.0,-999.0,98,-99.99,,,0.00,Acu-Link.com,2013-07-27 02:26:00,
2013-07-26 21:41:00,72.3,71.7,29.69,SSE,157,0.0,-999.0,98,-99.99,,,0.00,Acu-Link.com,2013-07-27 02:41:00,
2013-07-26 21:56:00,72.0,71.4,29.70,SSE,157,0.0,-999.0,98,-99.99,,,0.00,Acu-Link.com,2013-07-27 02:56:00,
2013-07-26 22:11:00,72.0,71.4,29.71,South,180,0.0,-999.0,98,-99.99,,,0.00,Acu-Link.com,2013-07-27 03:11:00,
2013-07-26 22:27:00,71.8,71.2,29.70,South,180,0.0,-999.0,98,-99.99,,,0.00,Acu-Link.com,2013-07-27 03:27:00,
2013-07-26 22:42:00,71.6,71.0,29.69,South,180,0.0,-999.0,98,-99.99,,,0.00,Acu-Link.com,2013-07-27 03:42:00,
2013-07-26 22:57:00,71.4,70.8,29.69,West,270,0.0,-999.0,98,-99.99,,,0.00,Acu-Link.com,2013-07-27 03:57:00,
2013-07-26 23:12:00,71.2,70.6,29.69,West,270,0.0,-999.0,98,-99.99,,,0.00,Acu-Link.com,2013-07-27 04:12:00,
2013-07-26 23:27:00,70.5,69.9,29.68,SSE,157,0.0,-999.0,98,-99.99,,,0.00,Acu-Link.com,2013-07-27 04:27:00,
2013-07-26 23:42:00,69.8,69.2,29.66,ENE,67,0.0,-999.0,98,-99.99,,,0.00,Acu-Link.com,2013-07-27 04:42:00,
2013-07-26 23:57:00,69.6,69.0,29.66,NNE,22,0.0,-999.0,98,-99.99,,,0.00,Acu-Link.com,2013-07-27 04:57:00,